Location: �couen
(49.0206°N, 2.3831°E)
Time: 23:49:11
(UTC+00:00)

Ariane Rocket - Pass Details

Date: 16 October 2021
Orbit: 759 x 770 km, 98.7° (Epoch: 06 December)

Event Time Altitude Azimuth Distance (km) Brightness Sun altitude
Exits shadow 19:41:05 35° 17° (NNE) 1,225 4.0 -27.2°
Drops below altitude 10° 19:44:18 10° 354° (N) 2,327 5.8 -27.7°
Sets 19:46:40 0° 350° (N) 3,258 6.6 -28.0°
